Weather Roundup
Issued by NWS

Home | Current Version | Previous Version | Text Only | Print | Product List | Glossary On
Versions: 1 2 3 4 5 6 7 8 9 10 11 12 13 14 15 16 17 18 19 20 21 22 23 24 25 26 27 28 29 30 31 32 33 34 35 36 37 38 39 40 41 42 43 44 45 46 47 48 49 50
000
NZUS93 KARX 211510
HRRWXR

CURRENT HOURLY OBSERVATIONS ACROSS
MUCH OF THE UPPER MISSISSIPPI VALLEY
NATIONAL WEATHER SERVICE LA CROSSE WI
1000 AM CDT SUN SEP 21 2014


...SOUTHEAST MINNESOTA...


CITY           SKY/WX    TMP DP  RH WIND       PRES   REMARKS
ROCHESTER      CLOUDY    54  48  80 N17G26    30.07R
ROCHESTER/MAYO CLOUDY    54  48  80 NW13G22   30.07R
WINONA         CLOUDY    55  50  82 NW13      30.02R
AUSTIN         CLOUDY    54  48  82 N14G23    30.08R
ALBERT LEA     CLOUDY    55  50  82 N12G20    30.11R
DODGE CENTER   CLOUDY    54  50  87 N13G20    30.08R
PRESTON        CLOUDY    53  52  96 N13G24    30.05R
OWATONNA       CLOUDY    55  48  76 NW14G21   30.11R
FARIBAULT      CLOUDY    57  46  67 NW12      30.11R
$$

...ELSEWHERE IN MINNESOTA...


CITY           SKY/WX    TMP DP  RH WIND       PRES   REMARKS
MINNEAPOLIS    CLOUDY    55  47  74 NW17      30.11R
INTNL FALLS    SUNNY     52  44  74 NE7       30.13R
DULUTH         PTSUNNY   55  45  68 N17G24    30.06R
RED WING       PTSUNNY   57  48  72 N9G18     30.06R
REDWOOD FALLS  MOSUNNY   57  51  80 NW12      30.16R
MANKATO        PTSUNNY   57  46  67 N17G26    30.13R
WORTHINGTON    SUNNY     57  46  67 NW18G25   30.19R
FAIRMONT       MOSUNNY   59  45  58 NW14G21   30.14R
$$

...SOUTHWEST WISCONSIN...


CITY           SKY/WX    TMP DP  RH WIND       PRES   REMARKS
LA CROSSE      CLOUDY    59  51  75 NW13      29.98R
PRAIRIE DU CHI CLOUDY    57  48  73 NW12      29.99R
BOSCOBEL       CLOUDY    59  50  72 NW9G17    29.97R
LONE ROCK      CLOUDY    62  50  64 NW15      29.94R
PLATTEVILLE    CLOUDY    56  51  81 NW13      29.97R
FORT MC COY    CLOUDY    56  50  79 NW13G18   29.97R
CAMP DOUGLAS   CLOUDY    57  57 100 NW12      29.94R
VIROQUA        CLOUDY    55  51  87 NW14G20   29.97R
WIS DELLS      CLOUDY    57  50  77 NW10G23   29.91R
$$

...ELSEWHERE IN WISCONSIN...


CITY           SKY/WX    TMP DP  RH WIND       PRES   REMARKS
MILWAUKEE      PTSUNNY   59  51  75 NW17G23   29.82R
MADISON        DRIZZLE   59  51  75 NW10G22   29.89R
GREEN BAY      CLOUDY    57  52  83 N16G26    29.85R
EAU CLAIRE     MOSUNNY   58  47  66 N16G23    30.02R
BLACK RVR FLS  CLOUDY    57  50  77 N14G26    29.97R
MEDFORD        CLOUDY    51  45  80 N16G25    29.97R
WAUSAU         MOSUNNY   52  45  77 N16G28    29.92R
WIS RAPIDS     CLOUDY    59  52  77 N17G23    29.93R
MARSHFIELD     PTSUNNY   56  50  80 N18G26    29.95R
RICE LAKE      PTSUNNY   54  47  77 N9G17     30.06R
$$

...NORTHEAST IOWA...


CITY           SKY/WX    TMP DP  RH WIND       PRES   REMARKS
WATERLOO       CLOUDY    56  49  77 NW17G24   30.05R
DUBUQUE        CLOUDY    56  50  80 NW15G24   29.97R
DECORAH        CLOUDY    54  50  87 NW14G25   30.01R
MASON CITY     CLOUDY    55  49  80 N18G26    30.12R
CHARLES CITY   CLOUDY    55  48  76 NW18G29   30.07R
OELWEIN        CLOUDY    57  50  77 NW16G26   30.04R
$$

...ELSEWHERE IN IOWA...


CITY           SKY/WX    TMP DP  RH WIND       PRES   REMARKS
DES MOINES     SUNNY     64  48  56 N21G29    30.11R
IOWA CITY        N/A     61  50  67 NW16G23   30.03R
FORT DODGE     SUNNY     61  46  59 N10G17    30.15R
MARSHALLTOWN   SUNNY     61  49  64 N17       30.08R
CEDAR RAPIDS   MOSUNNY   59  50  72 N21G29    30.02R
$$

...NORTHERN ILLINOIS...


CITY           SKY/WX    TMP DP  RH WIND       PRES   REMARKS
CHICAGO-OHARE  CLOUDY    61  50  67 NW16G24   29.85R
DUPAGE         CLOUDY    59  50  72 NW16G26   29.87R
CHICAGO-MIDWAY PTSUNNY   62  51  67 NW16G26   29.84R
MOLINE         SUNNY     63  50  62 NW20G29   29.98R
ROCKFORD       CLOUDY    59  49  69 NW18G31   29.92R
STERLING       CLOUDY    59  50  72 N13G20    29.95R
PEORIA         SUNNY     67  52  58 NW9       29.96R
$$

NOTE: "FAIR" INDICATES FEW OR NO CLOUDS BELOW 12,000 FEET WITH NO
SIGNIFICANT WEATHER AND/OR OBSTRUCTIONS TO VISIBILITY. WIND
SPEEDS ARE IN MILES-PER-HOUR.



USA.gov is the U.S. government's official web portal to all federal, state and local government web resources and services.